Location: Binningen
(47.7924°N, 8.7261°E)
Time: 16:49:38
(UTC+00:00)

Cosmos 1733 Rocket - Pass Details

Date: 30 September 2021
Orbit: 604 x 627 km, 82.5° (Epoch: 20 October)

Event Time Altitude Azimuth Distance (km) Brightness Sun altitude
Rises 02:51:59 0° 2° (N) 2,894 6.9 -25.4°
Reaches altitude 10° 02:54:40 10° 18° (NNE) 1,988 6.2 -25.0°
Maximum altitude 02:58:04 22° 69° (ENE) 1,380 5.6 -24.5°
Drops below altitude 10° 03:01:28 10° 120° (ESE) 1,987 6.1 -24.0°
Sets 03:04:08 0° 136° (SE) 2,892 6.8 -23.6°
